Cloud_Cover
24 24 32 32 24 12 0 0 0 8 8 0 0 0 0 0 12 36 24 24 44 92 92 92 92 92 92 92 92 92 92 92 92 92 92 92 92 92 92 92 92 92 92 92 92 92 92 92 92 92 92 92 92 92 92 92 92 92 92 92 92 92 92 92 92 92 92 92 92 100 92 92 92 88 76 76 88 92 92 92 92 88 80 68 68 68 80 92 92 92 92 88 80 80 80 80 80 80 88 92 92 92 92
24 24 24 24 12 0 0 0 0 8 8 0 0 0 0 8 20 24 20 20 36 92 92 92 92 92 92 92 92 92 92 92 92 92 92 92 92 92 92 92 92 92 92 92 92 92 92 92 92 92 92 92 92 92 92 92 92 92 92 92 92 92 92 92 92 92 92 92 92 100 92 92 92 92 88 88 92 92 92 92 92 92 80 76 80 88 92 92 92 92 92 92 92 92 92 88 80 76 80 88 92 92 92
24 24 24 24 12 0 0 0 0 8 8 0 0 0 12 24 32 24 20 12 32 92 92 92 92 92 92 92 92 92 68 56 64 92 92 92 92 92 92 92 92 92 92 92 92 92 92 92 92 92 92 92 92 92 92 92 92 92 92 92 92 92 92 92 92 80 92 92 92 92 92 92 92 92 92 92 92 92 92 92 92 92 80 80 92 92 92 92 92 92 92 88 88 92 88 80 80 76 80 88 88 88 88
8 24 24 12 0 0 0 0 0 0 8 8 0 8 20 24 24 20 8 0 24 92 92 92 92 92 92 92 92 92 88 68 56 92 92 64 24 32 32 36 48 44 68 88 92 92 92 92 92 92 92 88 80 88 92 92 92 92 92 92 92 92 92 92 88 80 92 92 92 92 92 92 92 92 92 92 92 92 92 92 92 92 92 92 92 92 92 92 92 92 92 88 80 80 76 76 68 76 80 88 88 88 88
0 12 20 12 0 0 0 0 0 0 12 12 12 20 20 20 12 8 0 0 24 92 92 92 92 92 92 92 92 92 92 76 68 92 92 68 36 32 36 64 80 48 48 76 92 92 56 36 56 92 68 56 64 88 92 92 92 92 92 92 92 92 92 92 88 88 92 92 92 92 92 92 92 92 92 92 92 92 92 100 92 92 92 92 92 92 92 92 92 92 88 88 88 88 88 80 80 80 88 88 88 88 92
0 12 0 0 0 0 0 0 0 8 12 20 20 20 24 20 12 8 0 44 88 92 92 92 92 92 92 92 92 92 92 92 88 64 36 56 92 92 92 92 92 92 64 76 92 92 92 80 68 80 88 92 92 92 88 92 92 92 92 92 92 92 92 92 92 92 92 92 92 92 92 92 92 92 92 92 92 92 92 92 92 92 92 92 92 92 92 92 92 92 92 92 92 92 88 88 88 88 88 88 88 88 88
0 0 0 0 0 0 0 0 0 12 24 24 24 24 24 24 20 12 8 48 92 92 92 92 92 92 92 92 92 92 92 92 92 92 48 48 64 56 64 56 56 56 56 76 92 92 92 92 92 92 92 92 92 92 92 92 92 92 92 92 92 92 92 92 92 92 92 92 92 92 92 92 92 92 88 92 92 92 92 92 92 100 92 92 92 92 92 92 92 92 92 88 92 92 92 92 92 92 92 92 92 92 92
0 0 0 0 0 0 0 0 0 20 24 32 32 32 32 24 20 12 8 44 88 92 92 92 92 92 92 92 92 92 92 92 92 92 92 92 92 92 92 92 92 92 92 80 56 36 80 92 92 92 92 92 92 92 92 92 92 92 92 92 92 92 92 92 92 92 92 92 92 92 92 92 88 92 92 92 92 92 92 92 92 92 92 92 92 92 92 92 92 92 88 88 88 88 92 92 92 92 92 92 92 92 92
0 8 0 0 0 0 0 0 8 24 32 36 32 32 32 24 20 12 0 8 12 24 76 92 92 92 92 92 92 92 92 92 92 92 92 92 92 92 92 92 92 92 92 92 92 92 92 92 92 92 92 92 92 92 92 92 92 92 92 92 92 92 92 92 92 92 88 88 88 92 80 88 92 92 92 92 92 92 92 92 92 92 92 92 92 92 92 92 92 92 92 92 92 88 92 92 92 92 92 92 92 92 92
0 8 20 8 0 0 0 8 20 24 32 36 36 32 32 24 20 12 8 0 0 8 68 92 92 92 92 92 92 92 92 92 92 92 92 92 92 92 92 92 92 92 92 92 92 92 92 92 92 92 92 92 92 92 92 92 92 92 92 92 92 92 92 92 92 92 92 88 88 92 92 92 92 92 80 80 88 92 92 92 92 88 92 92 92 100 92 92 92 92 92 92 88 88 92 92 92 92 92 92 92 92 92
0 8 12 8 0 0 0 8 24 32 36 36 36 32 24 20 12 12 8 8 0 0 68 92 92 92 92 92 92 92 92 92 92 92 92 92 92 92 92 88 88 92 88 88 88 92 92 92 92 92 92 92 92 92 92 88 88 80 92 92 92 92 92 92 92 92 88 88 92 92 92 92 88 80 68 76 88 92 92 88 80 76 88 92 92 92 92 92 92 88 88 92 92 92 92 92 92 92 92 92 92 92 92
0 20 12 0 0 0 0 12 32 36 36 36 32 32 24 20 12 12 8 8 8 12 76 92 92 92 92 92 92 92 92 92 92 92 92 92 92 92 92 76 68 92 68 56 64 92 92 92 92 88 76 80 88 76 76 64 56 88 92 92 92 92 92 92 92 92 92 92 92 92 92 92 88 88 80 80 88 88 80 76 68 68 88 92 92 92 92 92 92 92 88 88 92 92 92 92 92 88 88 92 92 92 92
0 8 8 8 0 0 0 12 32 44 44 36 32 32 24 20 12 12 12 12 20 36 80 92 92 92 92 92 92 92 92 92 92 92 92 92 92 92 92 92 92 92 92 92 92 92 92 88 80 76 88 92 92 88 88 88 92 92 92 92 92 92 92 92 92 92 92 92 92 92 92 92 92 92 92 92 92 92 88 80 76 76 92 92 92 92 80 80 88 92 92 88 88 88 88 88 88 88 88 92 92 92 92
0 0 8 0 0 0 0 8 24 48 44 32 24 24 24 20 12 12 12 12 32 92 92 92 92 92 92 92 92 92 92 92 92 92 92 92 92 92 92 92 92 92 92 92 92 88 80 64 56 92 88 92 92 92 92 92 92 92 92 92 92 92 92 92 92 92 92 92 92 92 92 92 92 92 92 92 92 92 92 92 92 88 92 92 92 92 80 76 76 88 88 88 92 88 88 92 88 88 80 88 92 92 92
0 0 0 0 0 0 0 8 20 44 36 32 24 24 24 20 20 20 12 12 32 92 92 92 92 92 92 92 92 92 92 92 92 92 92 92 92 92 92 92 92 92 92 92 92 80 68 56 68 92 92 92 92 92 92 92 92 92 92 92 92 92 92 92 92 92 92 92 92 92 92 92 92 92 92 92 92 92 92 92 92 92 88 88 88 92 88 68 64 68 80 80 88 88 88 92 88 80 76 88 92 92 92
0 0 0 0 0 0 0 0 12 44 36 36 32 32 24 20 20 20 12 12 36 92 92 92 92 92 92 92 92 92 92 92 92 92 92 92 92 92 92 92 92 92 92 92 92 92 92 92 88 92 92 92 92 92 92 92 92 92 92 92 92 92 92 92 92 92 92 92 92 92 92 92 92 92 92 92 92 92 88 88 88 80 80 68 68 92 88 80 68 48 68 76 88 92 88 88 88 80 80 88 92 92 92
0 0 0 0 0 0 0 0 8 36 44 44 36 32 24 20 20 20 20 24 48 92 92 92 92 92 92 92 92 92 92 92 92 92 92 92 92 92 92 92 92 92 92 92 92 92 92 92 92 92 92 92 92 92 92 92 92 92 92 92 92 92 92 92 92 92 92 92 92 92 92 92 92 92 92 92 92 92 88 88 80 80 76 64 64 76 88 88 80 64 56 68 80 88 80 80 88 88 88 88 88 92 92
0 0 0 0 0 0 0 0 8 32 36 44 36 36 32 24 24 24 24 48 80 92 92 92 92 92 92 92 92 92 92 92 92 92 92 92 92 92 92 88 80 92 88 76 68 68 88 92 92 92 92 92 92 92 92 92 92 92 92 92 92 92 92 92 92 92 92 92 92 92 92 92 92 92 92 92 92 92 92 88 80 76 68 64 64 68 80 88 88 80 64 64 68 80 88 80 80 88 88 88 92 92 92
0 0 0 0 0 0 0 0 8 20 36 44 44 36 32 32 32 32 48 76 92 92 92 92 92 92 92 92 92 92 92 92 92 92 92 92 92 92 88 68 64 80 68 68 68 68 88 92 92 92 92 92 92 92 92 92 92 92 92 92 92 92 92 92 92 92 92 92 92 92 92 92 92 92 92 92 92 92 92 88 80 68 56 56 56 68 80 88 88 88 76 64 64 64 88 88 88 88 92 92 92 92 92
0 0 0 0 0 0 0 0 0 0 32 44 48 44 36 36 36 32 76 92 92 92 92 92 92 92 92 92 92 92 92 92 92 92 92 92 92 92 80 64 64 80 80 76 76 92 92 92 92 92 92 92 92 92 92 92 92 92 92 92 92 92 92 92 92 92 92 92 92 92 92 92 92 92 92 100 100 100 92 92 80 56 48 48 48 64 80 92 92 92 88 76 64 48 76 88 88 88 92 92 92 92 92
0 0 0 0 0 0 0 0 0 0 24 36 44 36 44 44 48 68 88 92 92 92 92 92 92 92 92 92 92 92 92 92 92 92 92 92 92 92 88 76 68 76 88 80 76 92 92 92 92 92 92 92 92 92 92 92 92 92 92 92 92 92 92 92 92 92 92 92 92 92 92 92 92 92 92 92 100 100 92 92 88 68 56 48 48 68 88 92 92 92 88 80 68 64 76 80 88 88 92 92 92 92 92
0 0 0 0 0 0 0 0 0 0 24 24 24 24 36 44 56 92 92 92 92 92 92 88 80 88 92 92 92 92 92 92 92 92 92 92 92 92 92 88 80 68 88 92 92 92 92 92 92 92 92 92 92 92 92 92 92 92 92 92 92 92 92 92 92 92 92 92 92 92 92 92 92 92 92 92 100 100 92 92 92 88 68 56 64 80 88 88 88 88 88 80 76 68 80 80 88 92 92 92 92 92 92
0 0 0 0 0 0 0 0 0 8 12 12 12 12 24 56 80 92 92 92 92 92 92 76 64 68 76 76 80 80 92 92 92 92 92 92 92 92 92 92 92 88 92 92 92 92 92 92 92 92 92 92 92 92 92 92 92 92 92 92 92 92 92 92 92 92 92 92 92 92 92 92 92 92 92 92 92 92 92 92 92 92 88 76 76 88 92 88 80 92 92 88 88 80 80 80 88 92 92 92 92 92 92
0 0 0 0 0 0 0 8 8 8 8 8 8 12 12 56 92 92 92 92 88 80 80 76 76 88 80 88 88 88 92 92 92 92 92 92 92 92 92 92 92 92 92 92 92 92 92 92 92 92 92 92 92 92 92 92 92 92 92 92 88 68 88 92 92 92 92 92 92 92 92 92 92 92 92 92 92 92 92 92 92 92 92 88 80 88 92 88 80 88 92 92 92 92 80 80 88 88 88 88 92 92 92
0 0 0 0 0 0 0 8 8 8 8 8 8 12 12 48 88 76 76 76 68 68 68 68 68 68 76 80 80 92 88 88 92 92 92 92 92 92 92 92 92 92 92 92 92 92 92 92 92 92 92 92 92 92 92 92 92 92 92 92 80 56 88 92 92 92 92 92 92 92 92 92 92 92 92 92 92 92 92 92 92 92 92 92 92 92 92 92 92 92 92 88 80 92 88 88 88 92 88 88 92 92 88
0 0 0 0 0 0 8 8 12 12 12 12 12 12 56 76 80 76 68 76 76 48 56 64 64 48 36 36 44 56 56 76 92 92 92 92 92 92 92 92 92 92 92 92 92 92 92 92 92 92 92 92 92 92 92 92 92 92 92 92 88 64 64 80 92 92 92 92 92 92 92 92 92 92 92 92 92 92 92 92 92 92 92 92 92 92 92 92 92 92 92 92 88 88 88 88 88 88 88 92 92 92 88
0 0 0 0 0 0 8 8 12 12 12 12 12 12 48 64 64 64 64 68 64 44 44 36 24 8 8 0 8 8 12 24 44 68 64 80 92 92 92 92 92 92 80 64 68 92 92 92 92 92 92 92 92 92 92 92 92 92 92 92 92 80 64 56 76 92 92 92 92 92 92 92 92 92 92 92 92 92 92 92 92 92 92 92 92 92 92 92 92 92 92 92 92 88 88 92 92 92 92 92 92 92 80
8 0 0 0 0 0 8 12 12 12 12 12 20 36 36 32 32 44 44 36 24 12 12 8 8 0 0 0 0 0 0 0 20 64 36 64 92 92 92 92 92 92 92 88 80 88 88 92 92 92 92 92 92 92 92 92 92 92 92 92 92 88 76 64 68 92 92 92 92 92 92 92 92 92 92 92 92 92 92 92 92 92 92 92 92 92 92 92 92 92 92 92 92 88 88 92 92 92 92 92 92 92 88
8 8 8 8 8 8 12 12 12 12 12 12 20 20 20 20 12 12 12 12 8 8 8 8 8 0 0 0 0 0 0 24 56 64 44 32 44 92 92 92 92 92 92 92 92 92 92 80 76 88 92 92 92 92 92 92 92 92 92 92 92 92 88 80 76 80 92 92 92 92 92 92 92 92 92 92 92 92 92 92 92 92 92 92 92 92 92 92 92 92 92 92 92 88 88 92 88 76 92 92 92 92 88
8 8 8 8 8 8 8 8 8 12 12 12 12 12 12 12 12 12 12 8 8 8 8 8 0 0 0 0 0 8 8 44 80 64 36 24 32 76 88 92 92 92 92 92 92 92 92 80 56 36 48 76 92 92 92 92 92 92 92 92 92 92 92 88 80 80 92 92 92 92 92 92 92 92 92 92 92 92 92 92 92 92 92 92 92 100 92 92 92 92 92 92 92 92 92 92 92 92 92 92 92 92 92
8 8 8 8 8 8 8 8 8 8 8 8 8 8 12 12 12 8 8 8 8 8 0 0 0 0 8 12 12 20 24 32 32 32 76 92 92 92 92 92 92 92 88 88 92 92 92 92 88 92 68 76 92 92 92 92 92 92 92 92 92 92 92 92 92 92 92 92 92 92 92 92 92 92 92 92 92 92 92 92 92 92 92 92 92 92 92 92 92 92 92 92 92 92 92 92 92 92 92 92 92 92 92
8 8 8 8 8 8 0 0 8 20 8 0 8 8 8 8 8 8 8 8 8 0 0 0 0 8 8 8 0 12 20 36 64 92 92 92 92 92 92 92 92 92 92 80 80 92 92 92 92 92 80 64 56 64 88 92 92 92 92 92 92 92 92 92 92 92 92 92 92 92 92 92 92 92 92 92 92 92 92 92 92 92 92 92 92 92 92 92 92 92 92 100 92 92 92 92 92 92 92 92 92 92 92
8 8 8 8 0 0 8 12 20 0 0 0 0 8 8 8 8 0 0 0 0 0 0 8 20 44 12 32 64 80 88 88 88 92 92 92 92 92 92 92 92 92 92 88 80 92 92 92 92 92 92 88 88 92 92 92 92 92 92 92 92 92 92 92 92 92 92 92 92 92 92 92 92 92 92 92 92 92 92 92 92 92 92 92 92 92 92 92 100 100 100 100 100 100 92 92 92 92 92 92 92 92 92
0 8 0 0 0 0 0 8 8 0 0 0 0 0 8 8 8 8 8 8 8 0 0 32 56 44 48 56 56 44 68 68 64 92 88 88 92 92 92 92 92 92 92 92 92 92 92 92 92 92 92 92 92 92 92 92 92 92 92 92 92 92 92 92 92 92 92 92 92 92 92 92 92 92 92 92 92 92 92 92 92 92 92 92 92 92 92 92 100 100 100 100 100 100 92 92 92 92 92 92 92 92 92
0 0 0 0 0 0 0 0 0 0 0 0 0 0 0 0 0 8 20 48 64 8 32 64 80 76 88 64 36 48 80 92 92 92 44 64 92 92 92 92 92 92 92 92 92 92 92 92 92 92 92 92 92 92 92 92 92 92 92 92 92 92 92 92 92 92 92 92 92 92 92 92 92 92 92 92 92 92 92 92 92 92 92 92 92 92 92 92 92 100 100 100 100 100 92 92 92 92 92 92 92 92 92
0 0 0 0 0 0 0 0 0 0 0 0 0 8 8 8 8 8 24 56 76 56 64 80 88 76 88 68 56 92 92 92 92 92 92 92 92 92 92 92 92 92 92 92 92 92 92 92 92 92 92 92 92 92 92 92 92 92 92 92 92 92 92 92 92 92 92 92 92 92 92 92 92 92 92 92 92 92 92 92 92 92 92 92 92 92 92 92 92 92 92 92 100 100 92 92 92 92 92 92 92 92 92
0 0 0 0 0 0 0 0 8 0 0 8 24 48 64 44 24 8 36 56 68 92 92 92 92 92 92 80 76 92 92 92 92 92 92 92 92 92 92 92 92 92 92 92 92 92 92 92 92 92 92 92 92 92 92 92 92 92 92 92 92 92 92 92 92 92 92 88 88 92 92 92 92 92 92 92 92 92 92 92 92 92 92 92 92 92 92 92 92 92 92 92 92 100 92 92 92 92 92 92 92 92 92
0 0 0 0 0 0 0 12 24 12 20 36 64 80 80 76 64 44 76 88 88 92 92 92 92 92 80 80 92 80 88 92 92 92 92 92 92 92 92 92 92 92 92 92 92 92 92 92 92 92 92 92 92 92 92 92 92 92 92 92 92 92 92 92 92 92 92 88 88 92 92 92 92 92 92 92 92 92 92 92 92 92 92 92 92 92 92 92 92 92 92 92 92 92 92 92 92 92 92 92 92 92 88
0 0 0 0 12 24 24 20 20 24 32 44 64 88 88 88 88 88 88 88 88 92 92 88 76 80 48 68 88 80 88 92 92 92 92 92 92 92 92 92 92 92 92 92 92 92 92 92 92 92 92 92 88 92 92 92 92 92 92 92 92 92 92 92 92 92 92 92 92 92 92 92 92 92 92 92 92 92 92 92 92 92 92 92 92 92 92 92 92 92 92 92 92 92 92 92 92 92 92 92 92 92 80
0 0 12 32 44 48 36 32 24 32 36 44 64 88 88 88 88 88 88 88 88 92 88 76 64 64 56 76 92 92 92 92 92 92 92 92 92 92 92 92 92 92 92 92 92 92 92 92 92 88 88 88 92 92 92 92 92 92 92 92 92 92 92 92 92 92 92 92 92 92 92 92 92 92 92 92 92 92 92 92 92 92 92 92 92 92 92 92 92 92 92 92 92 92 92 92 92 92 92 92 92 92 92
32 24 56 68 64 44 36 36 32 24 36 56 76 80 88 88 88 88 88 80 80 92 76 80 88 80 76 80 92 92 92 92 92 92 92 92 92 92 92 92 92 92 92 92 92 92 92 92 92 92 88 92 92 92 92 92 92 92 92 92 92 92 92 92 92 92 92 92 92 92 92 92 92 92 92 92 92 92 92 92 92 92 92 92 92 92 92 92 92 92 92 92 92 92 92 92 92 92 92 92 92 92 92
80 80 80 76 56 44 44 36 24 12 20 36 56 64 76 80 88 88 88 80 80 92 88 80 88 92 92 92 92 88 92 92 92 92 92 92 92 92 92 92 92 92 92 92 92 92 92 92 92 92 92 92 92 92 92 92 92 92 92 92 92 92 92 92 92 92 92 92 92 92 92 92 92 92 92 92 92 92 92 92 92 92 92 92 92 92 92 92 92 92 92 92 92 92 92 92 92 92 92 92 92 92 92
92 92 68 56 48 44 32 20 8 8 8 20 32 44 56 76 80 68 76 76 76 92 92 92 92 92 88 88 88 88 88 88 92 92 92 92 92 92 92 92 92 92 92 92 92 92 92 92 92 92 92 92 92 92 92 92 88 92 92 92 92 92 92 92 92 92 92 92 92 92 92 92 92 92 92 92 92 92 92 92 92 92 92 92 92 92 92 92 92 92 92 92 92 92 92 92 92 92 92 92 92 92 92
88 68 44 44 48 32 12 8 8 0 0 0 12 32 44 48 56 44 56 56 56 76 88 92 92 92 76 68 68 92 88 88 92 92 92 92 92 92 92 92 92 92 92 92 92 92 92 92 92 92 92 92 92 92 92 92 88 92 92 92 92 92 92 92 92 92 92 92 92 92 92 92 92 92 92 92 92 92 92 92 92 92 92 92 92 92 92 92 92 92 92 92 92 92 92 92 92 92 92 92 92 92 92
80 32 44 44 32 12 8 8 8 0 0 0 0 8 20 20 24 36 36 44 44 56 80 76 64 92 80 68 76 92 88 92 92 92 92 92 92 92 92 92 92 92 92 92 92 92 92 92 92 92 92 92 92 92 92 92 92 92 92 92 92 92 92 92 92 92 92 92 92 92 92 92 92 92 92 92 92 92 92 92 92 92 92 92 92 92 92 92 92 92 92 92 92 92 92 92 92 92 92 92 92 92 92
68 32 44 32 12 8 8 8 0 0 0 0 0 0 8 8 8 12 20 24 32 48 56 44 44 92 92 88 88 92 88 88 92 92 92 92 92 92 92 92 92 92 92 92 92 92 92 92 92 92 92 92 92 92 92 92 92 92 92 92 92 92 92 92 92 92 92 92 92 92 92 92 92 92 92 92 92 92 92 92 92 92 92 92 92 92 92 92 92 92 92 92 92 92 92 92 92 92 92 92 92 92 92
80 48 36 20 8 0 0 0 0 0 0 0 0 0 0 0 0 0 12 12 12 32 32 44 64 92 92 92 92 92 92 92 92 92 92 92 92 92 92 92 92 92 92 92 92 92 92 92 92 92 92 92 92 92 92 92 92 92 92 92 92 92 92 92 92 92 92 92 92 92 92 92 92 92 92 92 92 92 92 92 92 92 92 92 92 92 92 92 88 92 92 92 92 92 92 92 92 92 92 92 92 92 92
64 32 20 12 0 0 0 0 0 0 0 0 0 0 0 0 0 0 12 8 8 20 12 20 44 80 80 80 88 92 92 92 92 92 92 92 92 92 92 92 92 92 92 92 92 92 92 92 92 92 92 92 92 92 92 92 92 92 92 92 92 92 92 92 92 92 92 92 92 92 92 92 92 92 92 92 92 92 92 92 92 92 92 92 92 92 92 88 88 92 92 92 92 92 92 92 92 92 92 92 92 92 80
32 24 20 12 8 8 8 0 0 0 0 0 0 0 0 0 0 0 0 8 20 48 44 44 48 68 80 76 76 92 92 88 88 92 92 92 92 92 92 92 92 92 92 92 92 92 92 92 92 92 92 92 92 92 92 92 92 92 92 92 92 92 92 92 92 92 92 92 92 92 92 92 92 92 92 92 92 92 92 92 92 92 92 92 92 88 88 88 88 92 92 92 92 92 92 92 92 92 92 92 92 76 76
32 24 24 20 12 12 8 8 8 0 0 0 0 0 0 0 0 0 0 0 20 56 64 56 48 76 80 80 80 92 92 80 80 92 92 92 92 92 92 92 92 92 92 92 92 92 92 92 92 92 92 92 92 92 92 92 92 92 92 92 92 92 92 92 92 92 92 92 92 92 92 92 92 92 92 92 92 92 92 92 92 92 92 92 88 88 80 88 92 92 92 92 92 92 92 92 92 92 92 88 80 80 88
36 32 24 20 20 12 12 12 8 8 0 0 0 0 0 0 0 0 0 0 0 12 12 24 44 56 64 68 80 92 88 88 80 64 80 92 92 92 92 92 92 92 92 92 92 92 92 92 92 92 92 92 92 92 92 92 92 92 92 92 92 92 92 92 92 92 92 92 92 92 92 92 92 92 92 92 92 92 92 92 92 92 92 92 92 92 92 92 92 92 92 92 92 92 92 92 92 92 92 92 92 92 76
80 64 64 44 20 12 12 8 8 8 8 8 0 0 0 0 0 0 0 0 0 0 8 12 24 32 36 48 68 92 80 76 76 76 80 80 80 92 92 92 92 92 92 92 92 92 92 92 92 92 92 92 92 92 92 92 92 92 92 92 92 92 92 92 92 92 92 92 92 92 92 92 92 92 92 92 92 92 92 92 92 92 92 92 92 92 92 92 92 92 92 92 92 92 92 92 92 88 76 68 68 68 88
88 88 68 64 48 8 8 8 8 8 8 8 8 8 0 0 0 0 0 0 0 0 24 32 32 32 32 64 92 92 92 88 88 92 88 80 76 64 88 76 68 80 92 92 92 92 92 92 92 92 92 92 92 92 92 92 92 92 92 92 92 92 92 92 92 100 100 92 92 92 92 92 92 92 92 92 92 92 92 92 92 92 92 92 92 92 92 92 92 92 92 92 92 92 92 88 68 68 68 64 64 76 88
68 68 76 76 56 8 8 8 8 8 8 8 8 8 8 0 0 0 0 0 0 0 12 44 64 36 24 56 92 88 92 92 92 92 92 80 68 64 88 88 80 68 80 88 92 92 92 92 92 92 92 92 92 92 92 92 92 92 92 92 92 92 92 92 100 100 92 92 92 92 92 92 92 92 92 92 92 92 92 92 92 92 92 92 92 92 92 92 92 92 92 92 92 88 80 76 76 76 80 88 88 92 92
64 56 64 68 76 68 24 8 8 8 8 8 8 8 8 0 0 0 0 0 0 0 0 32 48 44 68 88 92 92 76 80 92 92 92 92 88 76 68 76 80 80 88 92 92 92 92 92 92 92 92 92 92 92 92 92 92 92 92 92 92 92 92 92 92 92 92 92 92 92 92 92 92 92 92 92 92 92 92 92 92 92 92 92 92 92 92 92 92 92 92 88 88 80 80 88 88 92 92 92 92 92 92
44 44 36 36 32 32 56 36 8 8 8 8 8 8 8 0 0 0 0 0 0 0 0 12 32 48 80 92 92 92 88 92 92 92 92 92 80 56 64 80 92 92 92 92 92 92 92 92 92 92 92 92 92 92 92 92 92 92 92 92 92 92 92 92 92 92 92 92 92 92 92 92 92 92 92 92 92 92 88 88 88 92 92 92 92 92 92 92 92 88 88 88 88 92 92 92 92 88 92 92 92 92 92
32 32 32 32 24 20 32 48 64 48 12 0 0 0 0 0 0 0 0 0 0 0 0 8 12 12 68 92 92 92 92 92 88 80 92 92 80 56 76 88 92 92 92 92 92 92 92 92 92 92 92 92 92 92 92 92 92 92 92 92 92 92 92 92 92 92 92 92 92 92 92 92 92 92 92 92 92 88 88 92 92 92 92 92 92 92 92 88 88 88 88 88 88 88 92 92 92 88 88 92 92 92 92
20 20 24 24 20 12 8 24 48 68 20 8 0 0 0 0 0 0 0 0 0 0 0 8 8 0 64 88 92 92 88 92 88 68 88 92 92 88 92 92 92 92 92 92 92 92 92 92 92 92 92 92 92 92 92 92 92 92 92 92 92 92 92 92 92 92 92 92 92 92 92 92 92 92 92 92 92 92 92 92 92 92 92 92 88 88 88 88 88 88 88 88 88 88 88 88 88 92 88 92 92 92 92
20 8 8 8 8 0 0 8 12 20 20 20 20 0 0 0 0 0 0 0 0 0 0 0 0 0 44 76 88 88 80 88 88 76 80 88 92 92 92 92 92 92 88 88 92 92 92 92 92 92 92 92 92 92 92 92 92 92 92 92 92 92 92 92 92 92 88 80 80 88 88 92 92 92 92 92 88 80 76 76 80 92 92 92 92 88 80 80 88 88 88 88 92 92 88 88 88 88 88 88 92 92 92